Location: Sigmaringen
(48.0900°N, 9.2120°E)
Time: 15:33:49
(UTC+01:00)

ISS - Pass Details

Date: 13 November 2017
Orbit: 402 x 407 km, 51.6° (Epoch: 24 November)

Event Time Altitude Azimuth Distance (km) Brightness Sun altitude
Exits shadow 05:02:31 35° 71° (ENE) 669 -2.3 -24.0°
Drops below altitude 10° 05:04:40 10° 92° (E) 1,455 0.1 -23.7°
Sets 05:06:47 0° 98° (E) 2,313 1.5 -23.3°
